| time (UTC) | temp C | wind direction | speed KPH | gust KPH | rain 1hr cm | rain 24hr cm | rain mn cm | humidity % | barometer mb |
| 20260505021541 | 21 | 156 | 0.0 | 9.7 | 0.00 | 0.00 | 0.00 | 62 | 1008.7 |
| 20260505020039 | 21 | 0 | 0.0 | 8.0 | 0.00 | 0.00 | 0.00 | 61 | 1008.8 |
| 20260505014539 | 21 | 0 | 0.0 | 4.8 | 0.00 | 0.00 | 0.00 | 60 | 1008.5 |
| 20260505013037 | 21 | 0 | 0.0 | 6.4 | 0.00 | 0.00 | 0.00 | 59 | 1008.5 |
| 20260505011541 | 22 | 352 | 0.0 | 4.8 | 0.00 | 0.00 | 0.00 | 58 | 1008.4 |
| 20260505010101 | 22 | 140 | 0.0 | 6.4 | 0.00 | 0.00 | 0.00 | 57 | 1008.2 |
| 20260505004540 | 22 | 192 | 1.6 | 8.0 | 0.00 | 0.00 | 0.00 | 56 | 1008.2 |
| 20260505003042 | 23 | 136 | 1.6 | 6.4 | 0.00 | 0.00 | 0.00 | 56 | 1008.1 |
| 20260505001538 | 23 | 165 | 0.0 | 11.3 | 0.00 | 0.00 | 0.00 | 54 | 1008.1 |
| 20260505000044 | 24 | 190 | 1.6 | 12.9 | 0.00 | 0.00 | 0.00 | 52 | 1008.2 |
| 20260504234533 | 24 | 283 | 3.2 | 17.7 | 0.00 | 0.00 | 0.00 | 50 | 1008.3 |
| 20260504233040 | 25 | 278 | 4.8 | 12.9 | 0.00 | 0.00 | 0.00 | 50 | 1008.5 |
| 20260504231544 | 25 | 352 | 8.0 | 17.7 | 0.00 | 0.00 | 0.00 | 48 | 1008.6 |
| 20260504230044 | 25 | 273 | 6.4 | 20.9 | 0.00 | 0.00 | 0.00 | 47 | 1008.7 |
| 20260504224537 | 26 | 213 | 4.8 | 16.1 | 0.00 | 0.00 | 0.00 | 47 | 1008.9 |
| 20260504223045 | 26 | 232 | 6.4 | 19.3 | 0.00 | 0.00 | 0.00 | 47 | 1008.7 |
| 20260504221553 | 26 | 276 | 6.4 | 20.9 | 0.00 | 0.00 | 0.00 | 47 | 1008.8 |
| 20260504220037 | 26 | 236 | 8.0 | 24.1 | 0.00 | 0.00 | 0.00 | 46 | 1009.0 |
| 20260504214537 | 26 | 293 | 4.8 | 25.7 | 0.00 | 0.00 | 0.00 | 44 | 1009.1 |
| 20260504213047 | 27 | 264 | 8.0 | 17.7 | 0.00 | 0.00 | 0.00 | 44 | 1009.1 |
| 20260504211544 | 27 | 267 | 8.0 | 22.5 | 0.00 | 0.00 | 0.00 | 45 | 1009.4 |
| 20260504210038 | 26 | 43 | 8.0 | 20.9 | 0.00 | 0.00 | 0.00 | 46 | 1009.4 |
| 20260504204537 | 26 | 210 | 11.3 | 24.1 | 0.00 | 0.00 | 0.00 | 44 | 1009.7 |
| 20260504203046 | 26 | 268 | 6.4 | 27.4 | 0.00 | 0.00 | 0.00 | 46 | 1009.9 |
| 20260504201540 | 26 | 325 | 8.0 | 29.0 | 0.00 | 0.00 | 0.00 | 46 | 1010.1 |
| 20260504200038 | 26 | 236 | 9.7 | 27.4 | 0.00 | 0.00 | 0.00 | 45 | 1010.2 |
| 20260504194543 | 26 | 111 | 9.7 | 25.7 | 0.00 | 0.00 | 0.00 | 44 | 1010.6 |
| 20260504193037 | 26 | 259 | 8.0 | 32.2 | 0.00 | 0.00 | 0.00 | 45 | 1010.9 |
| 20260504191540 | 26 | 5 | 9.7 | 27.4 | 0.00 | 0.00 | 0.00 | 46 | 1011.0 |
| 20260504190038 | 26 | 240 | 9.7 | 25.7 | 0.00 | 0.00 | 0.00 | 47 | 1011.2 |
| 20260504184537 | 26 | 15 | 9.7 | 24.1 | 0.00 | 0.00 | 0.00 | 45 | 1011.3 |
| 20260504183036 | 26 | 192 | 9.7 | 22.5 | 0.00 | 0.00 | 0.00 | 46 | 1011.5 |
| 20260504181538 | 25 | 267 | 8.0 | 24.1 | 0.00 | 0.00 | 0.00 | 48 | 1011.6 |
| 20260504180045 | 25 | 187 | 11.3 | 30.6 | 0.00 | 0.00 | 0.00 | 46 | 1011.9 |
| 20260504174543 | 25 | 192 | 9.7 | 27.4 | 0.00 | 0.00 | 0.00 | 45 | 1012.1 |
| 20260504173037 | 25 | 293 | 9.7 | 27.4 | 0.00 | 0.00 | 0.00 | 46 | 1012.4 |
| 20260504171539 | 25 | 271 | 11.3 | 29.0 | 0.00 | 0.00 | 0.00 | 46 | 1012.6 |
| 20260504081545 | 16 | 0 | 0.0 | 3.2 | 0.00 | 0.00 | 0.00 | 74 | 1013.4 |
| 20260504044539 | 18 | 269 | 0.0 | 4.8 | 0.00 | 0.00 | 0.00 | 65 | 1014.3 |
| 20260504043037 | 18 | 257 | 1.6 | 9.7 | 0.00 | 0.00 | 0.00 | 64 | 1014.3 |
| 20260504041535 | 19 | 0 | 1.6 | 6.4 | 0.00 | 0.00 | 0.00 | 63 | 1014.5 |
| 20260504040100 | 19 | 259 | 1.6 | 6.4 | 0.00 | 0.00 | 0.00 | 63 | 1014.7 |
| 20260504034537 | 18 | 0 | 0.0 | 4.8 | 0.00 | 0.00 | 0.00 | 64 | 1014.7 |
| 20260504033038 | 18 | 198 | 0.0 | 3.2 | 0.00 | 0.00 | 0.00 | 64 | 1014.6 |
| 20260504031537 | 19 | 0 | 0.0 | 6.4 | 0.00 | 0.00 | 0.00 | 64 | 1014.6 |
| 20260504030036 | 19 | 0 | 0.0 | 6.4 | 0.00 | 0.00 | 0.00 | 64 | 1014.6 |
| 20260504024539 | 19 | 0 | 0.0 | 4.8 | 0.00 | 0.00 | 0.00 | 63 | 1014.5 |
| 20260504023037 | 19 | 200 | 0.0 | 3.2 | 0.00 | 0.00 | 0.00 | 63 | 1014.5 |